Flag for Norway Weather past 2 weeks in Ørsta, Norway

Now
68 °F

Scattered clouds.


Feels Like: 68 °F
Forecast: 55 / 65 °F
Wind: 6 mph from Southwest

Location: Orsta-Volda / Hovden

Current Time: Aug 4, 2015 at 12:20:01 PM

Latest Report: Aug 4, 2015 at 11:50 AM


Visibility: N/A

Pressure: 29.80 "Hg

Humidity: 60%

Dew point: 54 °F

Location of ØrstaLocation

Historic Weather in Ørsta — Graph

°F

Ørsta temperature yesterday

Maximum temperature yesterday: 63 °F (at 1:50 PM)
Minimum temperature yesterday: 41 °F (at 5:50 AM)
Average temperature yesterday: 56 °F

Past Weeks' High & Low Weather Summary

 TemperatureHumidityPressure
High68 °F (Jul 26, 3:50 PM)100% (Jul 21, 6:50 AM)30.09 "Hg (Jul 21, 6:50 AM)
Low41 °F (Aug 3, 5:50 AM)43% (Aug 1, 4:50 PM)29.50 "Hg (Jul 26, 6:50 PM)
Average56 °F75%29.73 "Hg
* Reported Jul 20 10:50 AM — Aug 4 10:50 AM, Ørsta, Weather by CustomWeather, © 2015

Note: Actual official high and low records may vary slightly from our data, if they occured in-between our weather recording intervals... More about our weather records

Advertising

Ørsta weather history for previous 24 hours

 ConditionsComfort  
Time TempWeatherWind HumidityBarometerVisibility
10:50 AM
Tue, Aug 4
68 °FSunny.5 mph60%29.80 "Hg10 mi
9:50 AM57 °FSunny.5 mph77%29.80 "Hg10 mi
8:50 AM55 °FLight rain. Clear.2 mph82%29.83 "HgN/A
7:50 AM54 °FSunny.2 mph77%29.83 "Hg10 mi
6:50 AM52 °FSunny.2 mph88%29.83 "Hg10 mi
5:50 AM50 °FClear.5 mph88%29.83 "Hg10 mi
10:50 PM
Mon, Aug 3
52 °FSunny.1 mph82%29.98 "Hg10 mi
9:50 PM54 °FSunny.2 mph77%29.98 "Hg10 mi
8:50 PM59 °FSunny.2 mph63%30.01 "Hg10 mi
7:50 PM61 °FSunny.5 mph48%30.01 "Hg10 mi
6:50 PM63 °FSunny.10 mph45%30.04 "Hg10 mi
5:50 PM61 °FPartly sunny.7 mph48%30.07 "HgN/A
4:50 PM63 °FScattered clouds.7 mph45%30.07 "HgN/A
3:50 PM61 °FScattered showers. Partly sunny.5 mph63%30.09 "HgN/A
2:50 PM61 °FSunny.5 mph55%30.07 "Hg10 mi
1:50 PM63 °FSunny.3 mph52%30.09 "Hg10 mi
12:50 PM61 °FSunny.3 mph68%30.09 "Hg10 mi
Weather by CustomWeather, © 2015

See weather overviewHow to use our weather pages